| time (UTC) | temp C | wind direction | speed KPH | gust KPH | rain 1hr cm | rain 24hr cm | rain mn cm | humidity % | barometer mb |
| 20260508085104 | 17 | 215 | 3.2 | 4.8 | 0.00 | 0.00 | 0.00 | 65 | 1011.9 |
| 20260508084604 | 16 | 227 | 1.6 | 4.8 | 0.00 | 0.00 | 0.00 | 65 | 1011.9 |
| 20260508084104 | 17 | 204 | 1.6 | 4.8 | 0.00 | 0.00 | 0.00 | 63 | 1011.5 |
| 20260508083603 | 17 | 198 | 3.2 | 3.2 | 0.00 | 0.00 | 0.00 | 63 | 1011.5 |
| 20260508082605 | 17 | 188 | 0.0 | 1.6 | 0.00 | 0.00 | 0.00 | 62 | 1011.2 |
| 20260508081604 | 16 | 215 | 0.0 | 1.6 | 0.00 | 0.00 | 0.00 | 64 | 1011.5 |
| 20260508081103 | 16 | 321 | 0.0 | 1.6 | 0.00 | 0.00 | 0.00 | 65 | 1011.5 |
| 20260508080603 | 16 | 238 | 0.0 | 1.6 | 0.00 | 0.00 | 0.00 | 64 | 1011.5 |
| 20260508080104 | 16 | 198 | 0.0 | 1.6 | 0.00 | 0.00 | 0.00 | 65 | 1011.5 |
| 20260508075604 | 16 | 217 | 0.0 | 0.0 | 0.00 | 0.00 | 0.00 | 65 | 1011.5 |
| 20260508075104 | 16 | 50 | 0.0 | 0.0 | 0.00 | 0.00 | 0.00 | 65 | 1011.5 |
| 20260508074604 | 16 | 279 | 0.0 | 0.0 | 0.00 | 0.00 | 0.00 | 65 | 1011.2 |
| 20260508074104 | 16 | 210 | 0.0 | 0.0 | 0.00 | 0.00 | 0.00 | 66 | 1011.2 |
| 20260508073604 | 16 | 340 | 0.0 | 0.0 | 0.00 | 0.00 | 0.00 | 66 | 1011.5 |
| 20260508073104 | 15 | 303 | 0.0 | 1.6 | 0.00 | 0.00 | 0.00 | 66 | 1011.2 |
| 20260508072604 | 15 | 271 | 0.0 | 1.6 | 0.00 | 0.00 | 0.00 | 66 | 1011.5 |
| 20260508071604 | 15 | 346 | 0.0 | 0.0 | 0.00 | 0.00 | 0.00 | 68 | 1011.2 |
| 20260508071104 | 14 | 336 | 0.0 | 0.0 | 0.00 | 0.00 | 0.00 | 71 | 1011.2 |
| 20260508070604 | 13 | 353 | 0.0 | 0.0 | 0.00 | 0.00 | 0.00 | 73 | 1011.2 |
| 20260508070104 | 13 | 343 | 0.0 | 0.0 | 0.00 | 0.00 | 0.00 | 74 | 1010.8 |
| 20260508065603 | 13 | 349 | 0.0 | 0.0 | 0.00 | 0.00 | 0.00 | 75 | 1011.2 |
| 20260508065104 | 12 | 349 | 0.0 | 0.0 | 0.00 | 0.00 | 0.00 | 75 | 1010.5 |
| 20260508064604 | 12 | 351 | 0.0 | 0.0 | 0.00 | 0.00 | 0.00 | 75 | 1010.5 |
| 20260508064104 | 12 | 350 | 0.0 | 0.0 | 0.00 | 0.00 | 0.00 | 75 | 1010.5 |
| 20260508063604 | 12 | 354 | 0.0 | 0.0 | 0.00 | 0.00 | 0.00 | 76 | 1010.5 |
| 20260508063104 | 11 | 357 | 0.0 | 0.0 | 0.00 | 0.00 | 0.00 | 76 | 1010.8 |
| 20260508062604 | 11 | 351 | 0.0 | 0.0 | 0.00 | 0.00 | 0.00 | 76 | 1010.6 |
| 20260508062104 | 11 | 352 | 0.0 | 0.0 | 0.00 | 0.00 | 0.00 | 76 | 1010.5 |
| 20260508061604 | 11 | 354 | 0.0 | 0.0 | 0.00 | 0.00 | 0.00 | 75 | 1010.5 |
| 20260508061104 | 11 | 356 | 0.0 | 0.0 | 0.00 | 0.00 | 0.00 | 75 | 1010.3 |
| 20260508060603 | 11 | 356 | 0.0 | 0.0 | 0.00 | 0.00 | 0.00 | 75 | 1010.3 |
| 20260508060103 | 11 | 354 | 0.0 | 0.0 | 0.00 | 0.00 | 0.00 | 75 | 1010.3 |
| 20260508055104 | 11 | 350 | 0.0 | 0.0 | 0.00 | 0.00 | 0.00 | 74 | 1010.5 |
| 20260508054604 | 12 | 350 | 0.0 | 0.0 | 0.00 | 0.00 | 0.00 | 73 | 1010.5 |
| 20260508054104 | 12 | 350 | 0.0 | 0.0 | 0.00 | 0.00 | 0.00 | 72 | 1010.5 |
| 20260508053603 | 12 | 352 | 0.0 | 0.0 | 0.00 | 0.00 | 0.00 | 72 | 1010.5 |
| 20260508053103 | 12 | 347 | 0.0 | 0.0 | 0.00 | 0.00 | 0.00 | 71 | 1010.5 |
| 20260508052604 | 12 | 350 | 0.0 | 0.0 | 0.00 | 0.00 | 0.00 | 70 | 1010.2 |
| 20260508052104 | 13 | 355 | 0.0 | 0.0 | 0.00 | 0.00 | 0.00 | 70 | 1010.2 |
| 20260508051603 | 13 | 351 | 0.0 | 0.0 | 0.00 | 0.00 | 0.00 | 70 | 1010.2 |
| 20260508050604 | 13 | 343 | 0.0 | 1.6 | 0.00 | 0.00 | 0.00 | 70 | 1010.2 |
| 20260508050105 | 13 | 346 | 0.0 | 0.0 | 0.00 | 0.00 | 0.00 | 70 | 1010.2 |
| 20260508045603 | 13 | 344 | 0.0 | 0.0 | 0.00 | 0.00 | 0.00 | 69 | 1010.2 |
| 20260508045104 | 13 | 347 | 0.0 | 4.8 | 0.00 | 0.00 | 0.00 | 69 | 1009.8 |
| 20260508044604 | 13 | 338 | 0.0 | 4.8 | 0.00 | 0.00 | 0.00 | 68 | 1010.2 |
| 20260508043604 | 13 | 338 | 0.0 | 1.6 | 0.00 | 0.00 | 0.00 | 67 | 1010.2 |
| 20260508042604 | 13 | 339 | 0.0 | 1.6 | 0.00 | 0.00 | 0.00 | 67 | 1010.2 |
| 20260508042104 | 13 | 341 | 0.0 | 0.0 | 0.00 | 0.00 | 0.00 | 68 | 1009.8 |
| 20260508041604 | 13 | 337 | 0.0 | 1.6 | 0.00 | 0.00 | 0.00 | 68 | 1009.8 |
| 20260508041104 | 13 | 317 | 0.0 | 1.6 | 0.00 | 0.00 | 0.00 | 69 | 1009.8 |
| 20260508040604 | 13 | 347 | 0.0 | 0.0 | 0.00 | 0.00 | 0.00 | 68 | 1009.5 |
| 20260508040104 | 13 | 347 | 0.0 | 0.0 | 0.00 | 0.00 | 0.00 | 68 | 1009.8 |
| 20260508035104 | 13 | 346 | 0.0 | 0.0 | 0.00 | 0.00 | 0.00 | 67 | 1009.8 |
| 20260508034604 | 13 | 346 | 0.0 | 0.0 | 0.00 | 0.00 | 0.00 | 67 | 1009.8 |
| 20260508034104 | 13 | 344 | 0.0 | 0.0 | 0.00 | 0.00 | 0.00 | 68 | 1009.5 |
| 20260508033104 | 13 | 347 | 0.0 | 0.0 | 0.00 | 0.00 | 0.00 | 69 | 1009.5 |
| 20260508032604 | 13 | 354 | 0.0 | 0.0 | 0.00 | 0.00 | 0.00 | 70 | 1009.8 |
| 20260508032104 | 13 | 346 | 0.0 | 0.0 | 0.00 | 0.00 | 0.00 | 70 | 1010.2 |
| 20260508031603 | 13 | 347 | 0.0 | 0.0 | 0.00 | 0.00 | 0.00 | 69 | 1009.8 |
| 20260508031103 | 13 | 346 | 0.0 | 0.0 | 0.00 | 0.00 | 0.00 | 69 | 1009.8 |
| 20260508030104 | 13 | 349 | 0.0 | 0.0 | 0.00 | 0.00 | 0.00 | 69 | 1009.5 |
| 20260508025604 | 13 | 349 | 0.0 | 0.0 | 0.00 | 0.00 | 0.00 | 68 | 1009.5 |
| 20260508025104 | 13 | 347 | 0.0 | 0.0 | 0.00 | 0.00 | 0.00 | 68 | 1009.5 |
| 20260508024604 | 13 | 348 | 0.0 | 0.0 | 0.00 | 0.00 | 0.00 | 68 | 1009.5 |
| 20260508024104 | 13 | 348 | 0.0 | 1.6 | 0.00 | 0.00 | 0.00 | 68 | 1009.5 |
| 20260508022604 | 13 | 323 | 0.0 | 0.0 | 0.00 | 0.00 | 0.00 | 67 | 1009.8 |
| 20260508022104 | 14 | 349 | 0.0 | 3.2 | 0.00 | 0.00 | 0.00 | 67 | 1009.5 |
| 20260508021603 | 14 | 348 | 0.0 | 3.2 | 0.00 | 0.00 | 0.00 | 67 | 1009.5 |
| 20260508021103 | 14 | 359 | 0.0 | 4.8 | 0.00 | 0.00 | 0.00 | 66 | 1009.8 |
| 20260508020604 | 14 | 354 | 1.6 | 4.8 | 0.00 | 0.00 | 0.00 | 66 | 1009.8 |
| 20260508020104 | 14 | 346 | 1.6 | 8.0 | 0.00 | 0.00 | 0.00 | 66 | 1009.8 |
| 20260508015604 | 14 | 1 | 3.2 | 9.7 | 0.00 | 0.00 | 0.00 | 66 | 1009.5 |
| 20260508015104 | 14 | 347 | 3.2 | 9.7 | 0.00 | 0.00 | 0.00 | 66 | 1009.5 |
| 20260508014604 | 14 | 354 | 3.2 | 8.0 | 0.00 | 0.00 | 0.00 | 66 | 1009.8 |
| 20260508014104 | 14 | 358 | 1.6 | 4.8 | 0.00 | 0.00 | 0.00 | 66 | 1009.8 |
| 20260508013604 | 14 | 324 | 0.0 | 4.8 | 0.00 | 0.00 | 0.00 | 66 | 1009.5 |
| 20260508013104 | 14 | 3 | 1.6 | 4.8 | 0.00 | 0.00 | 0.00 | 66 | 1009.5 |
| 20260508012604 | 15 | 2 | 3.2 | 4.8 | 0.00 | 0.00 | 0.00 | 65 | 1009.5 |
| 20260508011603 | 15 | 6 | 3.2 | 4.8 | 0.00 | 0.00 | 0.00 | 63 | 1009.8 |
| 20260508011103 | 15 | 344 | 1.6 | 8.0 | 0.00 | 0.00 | 0.00 | 63 | 1010.2 |
| 20260508010604 | 15 | 351 | 3.2 | 8.0 | 0.00 | 0.00 | 0.00 | 62 | 1010.2 |
| 20260508010104 | 15 | 338 | 0.0 | 8.0 | 0.00 | 0.00 | 0.00 | 62 | 1010.2 |
| 20260508005104 | 15 | 349 | 3.2 | 9.7 | 0.00 | 0.00 | 0.00 | 62 | 1010.2 |
| 20260508004603 | 15 | 354 | 3.2 | 9.7 | 0.00 | 0.00 | 0.00 | 62 | 1010.2 |
| 20260508003605 | 15 | 336 | 3.2 | 8.0 | 0.00 | 0.00 | 0.00 | 62 | 1010.2 |
| 20260508002603 | 15 | 339 | 3.2 | 8.0 | 0.00 | 0.00 | 0.00 | 63 | 1010.2 |
| 20260508001603 | 15 | 336 | 0.0 | 4.8 | 0.00 | 0.00 | 0.00 | 63 | 1010.4 |
| 20260508001103 | 15 | 343 | 0.0 | 3.2 | 0.00 | 0.00 | 0.00 | 63 | 1010.2 |
| 20260508000104 | 15 | 329 | 1.6 | 8.0 | 0.00 | 0.00 | 0.00 | 64 | 1010.2 |
| 20260507235604 | 15 | 342 | 0.0 | 3.2 | 0.00 | 0.00 | 0.00 | 63 | 1010.2 |
| 20260507235104 | 15 | 339 | 1.6 | 4.8 | 0.00 | 0.00 | 0.00 | 63 | 1010.2 |
| 20260507234604 | 15 | 347 | 3.2 | 4.8 | 0.00 | 0.00 | 0.00 | 63 | 1010.0 |
| 20260507234104 | 15 | 0 | 1.6 | 4.8 | 0.00 | 0.00 | 0.00 | 63 | 1009.9 |
| 20260507233603 | 15 | 332 | 3.2 | 8.0 | 0.00 | 0.00 | 0.00 | 64 | 1010.2 |
| 20260507233103 | 15 | 329 | 1.6 | 8.0 | 0.00 | 0.00 | 0.00 | 66 | 1010.2 |
| 20260507232603 | 15 | 316 | 1.6 | 4.8 | 0.00 | 0.00 | 0.00 | 67 | 1010.2 |
| 20260507231603 | 15 | 339 | 0.0 | 1.6 | 0.00 | 0.00 | 0.00 | 74 | 1010.5 |
| 20260507230604 | 15 | 341 | 0.0 | 0.0 | 0.00 | 0.00 | 0.00 | 74 | 1010.5 |
| 20260507230104 | 15 | 339 | 0.0 | 0.0 | 0.00 | 0.00 | 0.00 | 74 | 1010.2 |
| 20260507225604 | 15 | 352 | 0.0 | 0.0 | 0.00 | 0.00 | 0.00 | 74 | 1010.5 |
| 20260507225104 | 15 | 350 | 0.0 | 0.0 | 0.00 | 0.00 | 0.00 | 74 | 1010.2 |
| 20260507224603 | 15 | 347 | 0.0 | 0.0 | 0.00 | 0.00 | 0.00 | 74 | 1010.2 |
| 20260507224104 | 15 | 351 | 0.0 | 0.0 | 0.00 | 0.00 | 0.00 | 73 | 1010.5 |
| 20260507223104 | 16 | 347 | 0.0 | 0.0 | 0.00 | 0.00 | 0.00 | 73 | 1010.2 |
| 20260507221603 | 16 | 345 | 0.0 | 0.0 | 0.00 | 0.00 | 0.00 | 72 | 1010.5 |
| 20260507220604 | 16 | 340 | 0.0 | 0.0 | 0.00 | 0.00 | 0.00 | 72 | 1010.5 |
| 20260507220104 | 16 | 341 | 0.0 | 3.2 | 0.00 | 0.00 | 0.00 | 72 | 1010.2 |
| 20260507215604 | 16 | 295 | 0.0 | 4.8 | 0.00 | 0.00 | 0.00 | 71 | 1010.5 |
| 20260507215104 | 16 | 217 | 3.2 | 4.8 | 0.00 | 0.00 | 0.00 | 71 | 1010.5 |
| 20260507214604 | 16 | 253 | 1.6 | 4.8 | 0.00 | 0.00 | 0.00 | 70 | 1010.8 |
| 20260507214104 | 16 | 244 | 3.2 | 11.3 | 0.00 | 0.00 | 0.00 | 69 | 1010.5 |
| 20260507213604 | 16 | 216 | 8.0 | 11.3 | 0.00 | 0.00 | 0.00 | 69 | 1010.8 |
| 20260507212603 | 16 | 229 | 4.8 | 8.0 | 0.00 | 0.00 | 0.00 | 70 | 1010.8 |
| 20260507212104 | 16 | 250 | 4.8 | 9.7 | 0.00 | 0.00 | 0.00 | 70 | 1010.8 |
| 20260507211605 | 16 | 287 | 1.6 | 14.5 | 0.00 | 0.00 | 0.00 | 70 | 1010.8 |
| 20260507211104 | 16 | 246 | 4.8 | 14.5 | 0.00 | 0.00 | 0.00 | 70 | 1010.8 |
| 20260507210604 | 16 | 234 | 1.6 | 8.0 | 0.00 | 0.00 | 0.00 | 70 | 1010.8 |
| 20260507210104 | 16 | 351 | 0.0 | 11.3 | 0.00 | 0.00 | 0.00 | 70 | 1010.8 |
| 20260507205604 | 16 | 244 | 4.8 | 11.3 | 0.00 | 0.00 | 0.00 | 70 | 1010.8 |
| 20260507205104 | 16 | 267 | 4.8 | 9.7 | 0.00 | 0.00 | 0.00 | 70 | 1010.8 |
| 20260507204603 | 16 | 262 | 3.2 | 9.7 | 0.00 | 0.00 | 0.00 | 70 | 1010.5 |
| 20260507203604 | 16 | 257 | 3.2 | 8.0 | 0.00 | 0.00 | 0.00 | 71 | 1010.5 |
| 20260507202604 | 16 | 226 | 4.8 | 11.3 | 0.00 | 0.00 | 0.00 | 72 | 1010.5 |
| 20260507202104 | 16 | 251 | 1.6 | 9.7 | 0.00 | 0.00 | 0.00 | 72 | 1010.5 |
| 20260507201603 | 16 | 225 | 4.8 | 9.7 | 0.00 | 0.00 | 0.00 | 73 | 1010.5 |
| 20260507201103 | 16 | 231 | 3.2 | 12.9 | 0.00 | 0.00 | 0.00 | 73 | 1010.5 |
| 20260507200104 | 16 | 240 | 4.8 | 12.9 | 0.00 | 0.00 | 0.00 | 73 | 1010.5 |
| 20260507195604 | 16 | 154 | 8.0 | 11.3 | 0.00 | 0.00 | 0.00 | 72 | 1010.2 |
| 20260507195104 | 16 | 272 | 4.8 | 9.7 | 0.00 | 0.00 | 0.00 | 72 | 1010.5 |
| 20260507194604 | 16 | 236 | 1.6 | 8.0 | 0.00 | 0.00 | 0.00 | 72 | 1010.5 |
| 20260507194104 | 16 | 321 | 1.6 | 8.0 | 0.00 | 0.00 | 0.00 | 72 | 1010.5 |
| 20260507193604 | 16 | 328 | 0.0 | 8.0 | 0.00 | 0.00 | 0.00 | 72 | 1010.2 |
| 20260507192605 | 16 | 142 | 0.0 | 3.2 | 0.00 | 0.00 | 0.00 | 72 | 1010.5 |
| 20260507192104 | 16 | 218 | 3.2 | 4.8 | 0.00 | 0.00 | 0.00 | 71 | 1010.2 |
| 20260507191604 | 16 | 238 | 1.6 | 8.0 | 0.00 | 0.00 | 0.00 | 71 | 1010.2 |
| 20260507191104 | 16 | 248 | 1.6 | 8.0 | 0.00 | 0.00 | 0.00 | 71 | 1010.5 |
| 20260507190604 | 16 | 223 | 0.0 | 4.8 | 0.00 | 0.00 | 0.00 | 71 | 1010.2 |
| 20260507190104 | 16 | 241 | 1.6 | 4.8 | 0.00 | 0.00 | 0.00 | 71 | 1010.2 |
| 20260507184603 | 17 | 223 | 1.6 | 8.0 | 0.00 | 0.00 | 0.00 | 70 | 1010.2 |
| 20260507184104 | 17 | 221 | 4.8 | 9.7 | 0.00 | 0.00 | 0.00 | 70 | 1010.2 |
| 20260507183604 | 17 | 238 | 4.8 | 9.7 | 0.00 | 0.00 | 0.00 | 70 | 1010.0 |
| 20260507183104 | 17 | 262 | 3.2 | 9.7 | 0.00 | 0.00 | 0.00 | 70 | 1009.8 |
| 20260507182104 | 17 | 289 | 0.0 | 12.9 | 0.00 | 0.00 | 0.00 | 70 | 1009.9 |
| 20260507181603 | 17 | 308 | 1.6 | 12.9 | 0.00 | 0.00 | 0.00 | 70 | 1010.1 |
| 20260507181104 | 17 | 206 | 8.0 | 12.9 | 0.00 | 0.00 | 0.00 | 69 | 1009.8 |
| 20260507180104 | 17 | 215 | 3.2 | 11.3 | 0.00 | 0.00 | 0.00 | 69 | 1009.8 |
| 20260507175604 | 17 | 266 | 3.2 | 12.9 | 0.00 | 0.00 | 0.00 | 68 | 1009.8 |
| 20260507175104 | 17 | 299 | 3.2 | 16.1 | 0.00 | 0.00 | 0.00 | 69 | 1009.8 |
| 20260507174604 | 17 | 233 | 4.8 | 16.1 | 0.00 | 0.00 | 0.00 | 68 | 1009.5 |
| 20260507174103 | 17 | 256 | 4.8 | 12.9 | 0.00 | 0.00 | 0.00 | 68 | 1009.8 |
| 20260507173604 | 17 | 232 | 3.2 | 14.5 | 0.00 | 0.00 | 0.00 | 68 | 1009.5 |
| 20260507172604 | 17 | 236 | 4.8 | 19.3 | 0.00 | 0.00 | 0.00 | 68 | 1009.8 |
| 20260507172104 | 17 | 297 | 4.8 | 14.5 | 0.00 | 0.00 | 0.00 | 68 | 1009.8 |
| 20260507171604 | 17 | 229 | 4.8 | 14.5 | 0.00 | 0.00 | 0.00 | 67 | 1009.8 |
| 20260507171104 | 17 | 289 | 4.8 | 14.5 | 0.00 | 0.00 | 0.00 | 67 | 1009.8 |
| 20260507170603 | 18 | 180 | 4.8 | 14.5 | 0.00 | 0.00 | 0.00 | 66 | 1009.8 |
| 20260507170105 | 18 | 262 | 3.2 | 12.9 | 0.00 | 0.00 | 0.00 | 66 | 1009.5 |
| 20260507165603 | 18 | 225 | 3.2 | 16.1 | 0.00 | 0.00 | 0.00 | 67 | 1009.5 |
| 20260507165104 | 18 | 307 | 3.2 | 16.1 | 0.00 | 0.00 | 0.00 | 66 | 1009.5 |
| 20260507164604 | 18 | 223 | 4.8 | 11.3 | 0.00 | 0.00 | 0.00 | 64 | 1009.5 |
| 20260507164103 | 18 | 226 | 1.6 | 11.3 | 0.00 | 0.00 | 0.00 | 65 | 1009.5 |
| 20260507163604 | 18 | 230 | 4.8 | 11.3 | 0.00 | 0.00 | 0.00 | 65 | 1009.5 |
| 20260507163103 | 18 | 212 | 1.6 | 11.3 | 0.00 | 0.00 | 0.00 | 64 | 1009.5 |
| 20260507162604 | 18 | 309 | 3.2 | 14.5 | 0.00 | 0.00 | 0.00 | 64 | 1009.5 |
| 20260507162104 | 18 | 222 | 4.8 | 14.5 | 0.00 | 0.00 | 0.00 | 64 | 1009.5 |
| 20260507161603 | 19 | 251 | 4.8 | 9.7 | 0.00 | 0.00 | 0.00 | 64 | 1009.5 |
| 20260507161104 | 19 | 346 | 3.2 | 9.7 | 0.00 | 0.00 | 0.00 | 64 | 1009.5 |
| 20260507160104 | 19 | 95 | 1.6 | 12.9 | 0.00 | 0.00 | 0.00 | 66 | 1009.5 |
| 20260507155604 | 18 | 237 | 1.6 | 11.3 | 0.00 | 0.00 | 0.00 | 67 | 1009.5 |
| 20260507155104 | 19 | 201 | 3.2 | 11.3 | 0.00 | 0.00 | 0.00 | 65 | 1009.1 |
| 20260507154604 | 19 | 291 | 3.2 | 9.7 | 0.00 | 0.00 | 0.00 | 65 | 1009.5 |
| 20260507153604 | 19 | 214 | 3.2 | 8.0 | 0.00 | 0.00 | 0.00 | 64 | 1009.1 |
| 20260507152104 | 19 | 217 | 4.8 | 11.3 | 0.00 | 0.00 | 0.00 | 64 | 1009.5 |
| 20260507151604 | 18 | 243 | 8.0 | 11.3 | 0.00 | 0.00 | 0.00 | 65 | 1009.5 |
| 20260507151104 | 18 | 158 | 4.8 | 11.3 | 0.00 | 0.00 | 0.00 | 65 | 1009.5 |
| 20260507150105 | 18 | 227 | 4.8 | 14.5 | 0.00 | 0.00 | 0.00 | 65 | 1009.5 |
| 20260507145604 | 19 | 306 | 4.8 | 11.3 | 0.00 | 0.00 | 0.00 | 66 | 1009.5 |
| 20260507145103 | 19 | 195 | 3.2 | 11.3 | 0.00 | 0.00 | 0.00 | 66 | 1009.5 |
| 20260507144604 | 19 | 223 | 4.8 | 11.3 | 0.00 | 0.00 | 0.00 | 65 | 1009.5 |
| 20260507144104 | 19 | 223 | 4.8 | 11.3 | 0.00 | 0.00 | 0.00 | 65 | 1009.5 |
| 20260507143604 | 19 | 200 | 4.8 | 9.7 | 0.00 | 0.00 | 0.00 | 65 | 1009.5 |
| 20260507143104 | 19 | 158 | 4.8 | 9.7 | 0.00 | 0.00 | 0.00 | 65 | 1009.8 |
| 20260507142604 | 19 | 184 | 4.8 | 9.7 | 0.00 | 0.00 | 0.00 | 64 | 1009.8 |
| 20260507142104 | 19 | 223 | 3.2 | 11.3 | 0.00 | 0.00 | 0.00 | 64 | 1009.8 |
| 20260507141604 | 20 | 204 | 3.2 | 11.3 | 0.00 | 0.00 | 0.00 | 62 | 1009.8 |
| 20260507141104 | 20 | 262 | 3.2 | 11.3 | 0.00 | 0.00 | 0.00 | 62 | 1010.2 |
| 20260507140604 | 20 | 132 | 1.6 | 11.3 | 0.00 | 0.00 | 0.00 | 60 | 1009.8 |
| 20260507140104 | 20 | 243 | 3.2 | 9.7 | 0.00 | 0.00 | 0.00 | 60 | 1009.8 |
| 20260507135603 | 20 | 173 | 4.8 | 11.3 | 0.00 | 0.00 | 0.00 | 60 | 1009.8 |
| 20260507134604 | 19 | 202 | 8.0 | 11.3 | 0.00 | 0.00 | 0.00 | 60 | 1010.2 |
| 20260507133604 | 20 | 13 | 4.8 | 9.7 | 0.00 | 0.00 | 0.00 | 61 | 1010.2 |
| 20260507133104 | 20 | 196 | 4.8 | 11.3 | 0.00 | 0.00 | 0.00 | 62 | 1010.2 |
| 20260507132604 | 19 | 4 | 4.8 | 11.3 | 0.00 | 0.00 | 0.00 | 62 | 1010.2 |
| 20260507132104 | 20 | 131 | 3.2 | 11.3 | 0.00 | 0.00 | 0.00 | 60 | 1010.2 |
| 20260507131104 | 19 | 269 | 4.8 | 12.9 | 0.00 | 0.00 | 0.00 | 58 | 1010.2 |
| 20260507130604 | 19 | 187 | 4.8 | 12.9 | 0.00 | 0.00 | 0.00 | 60 | 1010.5 |
| 20260507125604 | 19 | 219 | 3.2 | 9.7 | 0.00 | 0.00 | 0.00 | 60 | 1010.2 |
| 20260507125104 | 19 | 224 | 3.2 | 9.7 | 0.00 | 0.00 | 0.00 | 61 | 1010.5 |
| 20260507124605 | 18 | 139 | 4.8 | 12.9 | 0.00 | 0.00 | 0.00 | 61 | 1010.5 |
| 20260507124104 | 18 | 243 | 3.2 | 12.9 | 0.00 | 0.00 | 0.00 | 61 | 1010.5 |
| 20260507123104 | 18 | 145 | 3.2 | 11.3 | 0.00 | 0.00 | 0.00 | 61 | 1010.2 |
| 20260507122104 | 18 | 215 | 1.6 | 9.7 | 0.00 | 0.00 | 0.00 | 63 | 1010.5 |
| 20260507121604 | 18 | 245 | 4.8 | 12.9 | 0.00 | 0.00 | 0.00 | 64 | 1010.5 |
| 20260507121104 | 18 | 276 | 4.8 | 12.9 | 0.00 | 0.00 | 0.00 | 64 | 1010.5 |
| 20260507120104 | 18 | 278 | 3.2 | 9.7 | 0.00 | 0.00 | 0.00 | 65 | 1010.8 |
| 20260507115604 | 18 | 169 | 3.2 | 9.7 | 0.00 | 0.00 | 0.00 | 64 | 1010.8 |
| 20260507115104 | 18 | 238 | 1.6 | 8.0 | 0.00 | 0.00 | 0.00 | 65 | 1010.8 |
| 20260507114603 | 18 | 215 | 3.2 | 4.8 | 0.00 | 0.00 | 0.00 | 64 | 1010.8 |
| 20260507113604 | 18 | 265 | 3.2 | 9.7 | 0.00 | 0.00 | 0.00 | 64 | 1011.2 |
| 20260507113104 | 18 | 249 | 4.8 | 11.3 | 0.00 | 0.00 | 0.00 | 64 | 1010.8 |
| 20260507112604 | 18 | 243 | 4.8 | 11.3 | 0.00 | 0.00 | 0.00 | 64 | 1010.8 |
| 20260507112104 | 18 | 209 | 3.2 | 8.0 | 0.00 | 0.00 | 0.00 | 65 | 1010.8 |
| 20260507111605 | 18 | 233 | 1.6 | 8.0 | 0.00 | 0.00 | 0.00 | 64 | 1010.5 |
| 20260507111103 | 18 | 219 | 3.2 | 9.7 | 0.00 | 0.00 | 0.00 | 65 | 1010.8 |
| 20260507110604 | 18 | 198 | 4.8 | 9.7 | 0.00 | 0.00 | 0.00 | 65 | 1010.8 |
| 20260507105604 | 17 | 237 | 3.2 | 9.7 | 0.00 | 0.00 | 0.00 | 67 | 1010.5 |
| 20260507105104 | 17 | 254 | 4.8 | 9.7 | 0.00 | 0.00 | 0.00 | 67 | 1010.8 |
| 20260507104603 | 18 | 299 | 1.6 | 9.7 | 0.00 | 0.00 | 0.00 | 67 | 1010.8 |
| 20260507104104 | 18 | 231 | 3.2 | 9.7 | 0.00 | 0.00 | 0.00 | 66 | 1010.5 |
| 20260507103103 | 17 | 252 | 1.6 | 4.8 | 0.00 | 0.00 | 0.00 | 67 | 1010.8 |
| 20260507102604 | 17 | 348 | 1.6 | 8.0 | 0.00 | 0.00 | 0.00 | 68 | 1010.5 |
| 20260507101104 | 17 | 290 | 1.6 | 4.8 | 0.00 | 0.00 | 0.00 | 69 | 1010.5 |
| 20260507100604 | 17 | 213 | 1.6 | 4.8 | 0.00 | 0.00 | 0.00 | 70 | 1010.8 |
| 20260507095603 | 17 | 234 | 4.8 | 9.7 | 0.00 | 0.00 | 0.00 | 70 | 1010.5 |
| 20260507095104 | 17 | 171 | 4.8 | 4.8 | 0.00 | 0.00 | 0.00 | 69 | 1010.5 |
| 20260507094603 | 17 | 199 | 3.2 | 3.2 | 0.00 | 0.00 | 0.00 | 71 | 1010.5 |
| 20260507094103 | 16 | 250 | 0.0 | 4.8 | 0.00 | 0.00 | 0.00 | 71 | 1010.5 |
| 20260507093604 | 16 | 266 | 1.6 | 4.8 | 0.00 | 0.00 | 0.00 | 71 | 1010.5 |
| 20260507093104 | 16 | 333 | 0.0 | 8.0 | 0.00 | 0.00 | 0.00 | 71 | 1010.8 |
| 20260507092604 | 16 | 344 | 4.8 | 8.0 | 0.00 | 0.00 | 0.00 | 72 | 1010.5 |
| 20260507092104 | 16 | 356 | 0.0 | 4.8 | 0.00 | 0.00 | 0.00 | 72 | 1010.5 |
| 20260507091604 | 16 | 301 | 1.6 | 4.8 | 0.00 | 0.00 | 0.00 | 73 | 1010.5 |
| 20260507091103 | 16 | 220 | 1.6 | 3.2 | 0.00 | 0.00 | 0.00 | 72 | 1010.5 |
| 20260507090604 | 16 | 337 | 0.0 | 4.8 | 0.00 | 0.00 | 0.00 | 73 | 1010.8 |
| 20260507090104 | 16 | 163 | 1.6 | 4.8 | 0.00 | 0.00 | 0.00 | 73 | 1010.5 |
| 20260507085604 | 16 | 178 | 3.2 | 3.2 | 0.00 | 0.00 | 0.00 | 73 | 1010.5 |